[[[{"header":{"parameterUnit":"kt","parameterCategory":2,"dx":1,"dy":1,"la1":30.253999710083008,"la2":30.299108505249023,"lo1":-89.0895004272461,"lo2":-89.04439544677734,"nx":28,"ny":28,"refTime":"2022-10-11T21:00:00:Z","depth":0,"parameterNumber":1,"parameterNumberName":"U-component_of_WINDS"},"data":[-8.7067,-8.7227,-8.722,-8.74,-8.7425,-8.7546,-8.7588,-8.7641,-8.7682,-8.7828,-8.7911,-8.7921,-8.7959,-8.8058,-8.8148,-8.815,-8.8188,-8.8251,-8.8242,-8.7965,-8.7926,-8.7889,-8.7848,-8.8261,-8.8261,-8.8529,-8.8531,-8.8533,-8.687,-8.6895,-8.6988,-8.7073,-8.7153,-8.7088,-8.7151,-8.7222,-8.7333,-8.7384,-8.7464,-8.7593,-8.7693,-8.7709,-8.7805,-8.7881,-8.7854,-8.7907,-8.7899,-8.7906,-8.7611,-8.7568,-8.7927,-8.7927,-8.7927,-8.7927,-8.7926,-8.7926,-8.6508,-8.6604,-8.6649,-8.675,-8.679,-8.6848,-8.6938,-8.6946,-8.7037,-8.7134,-8.7107,-8.7233,-8.7282,-8.7392,-8.7427,-8.7525,-8.7465,-8.7519,-8.7532,-8.7545,-8.7561,-8.7174,-8.7541,-8.754,-8.7539,-8.7538,-8.7538,0,-8.6239,-8.6226,-8.6312,-8.6399,-8.6471,-8.6537,-8.6595,-8.6651,-8.6618,-8.6695,-8.6805,-8.6867,-8.6991,-8.7093,-8.718,-8.7204,-8.7141,-8.7135,-8.7172,-8.7184,-8.7186,-8.7185,-8.6702,-8.7123,-8.7119,-8.7116,-8.7114,-8.7113,-8.5871,-8.5984,-8.6026,-8.6089,-8.6117,-8.6219,-8.6278,-8.6239,-8.6304,-8.637,-8.6458,-8.656,-8.6639,-8.6818,-8.6824,-8.6916,-8.6885,-8.7047,-8.6898,-8.6908,-8.6885,-8.6877,-8.6888,-8.7075,-8.708,-8.7084,-8.7087,0,-8.5664,-8.5647,-8.5819,-8.5848,-8.5859,-8.598,-8.6005,-8.61,-8.6095,-8.6226,-8.6254,-8.6246,-8.6355,-8.6334,-8.6454,-8.644,-8.6642,-8.6611,-8.6625,-8.6616,-8.6758,-8.6744,-8.7222,-8.7282,-8.6858,-8.6862,-8.6865,0,-8.5341,-8.5491,-8.5456,-8.5557,-8.5723,-8.5677,-8.5843,-8.5854,-8.5893,-8.5994,-8.592,-8.6017,-8.5974,-8.6069,-8.6048,-8.621,-8.6232,-8.623,-8.6222,-8.6235,-8.6235,-8.6265,-8.6243,-8.6201,-8.6199,-8.6197,-8.6195,0,-8.5016,-8.5173,-8.5336,-8.5368,-8.5412,-8.5491,-8.5513,-8.5554,-8.5612,-8.5683,-8.572,-8.5807,-8.5854,-8.5924,-8.5895,-8.5795,-8.6092,-8.5948,-8.6089,-8.609,-8.6152,-8.6148,-8.658,-8.6192,-8.6191,-8.619,-8.619,0,-8.475,-8.4821,-8.5061,-8.5095,-8.5137,-8.5246,-8.5325,-8.5413,-8.5462,-8.5454,-8.551,-8.5454,-8.5593,-8.5452,-8.5643,-8.5521,-8.5573,-8.5583,-8.5593,-8.5599,-8.5441,-8.5684,-8.6101,-8.6142,-8.5613,-8.5608,-8.5604,0,-8.4382,-8.4618,-8.4578,-8.4807,-8.4911,-8.4816,-8.4936,-8.498,-8.4979,-8.5069,-8.5068,-8.5171,-8.5061,-8.5089,-8.5187,-8.5189,-8.535,-8.5168,-8.5298,-8.5303,-8.5284,-8.5669,-8.5734,-8.6013,-8.5542,-8.5549,-8.5553,0,-8.4093,-8.4141,-8.4185,-8.4218,-8.4266,-8.4353,-8.4492,-8.4581,-8.4643,-8.4701,-8.4814,-8.4959,-8.4881,-8.4928,-8.4891,-8.4994,-8.524,-8.4896,-8.4896,-8.4957,-8.5509,-8.5571,-8.5618,-8.5193,-8.5201,-8.5206,-8.5504,0,-8.3692,-8.3805,-8.3922,-8.3997,-8.4061,-8.4202,-8.4173,-8.4243,-8.42,-8.4193,-8.4361,-8.4389,-8.4481,-8.4528,-8.4486,-8.4729,-8.4684,-8.4599,-8.4455,-8.4709,-8.4806,-8.4846,-8.4314,-8.4309,-8.4305,-8.4302,0,0,-8.3342,-8.3503,-8.3452,-8.3581,-8.363,-8.3525,-8.3679,-8.3715,-8.3791,-8.3828,-8.3749,-8.3955,-8.398,-8.4186,-8.4263,-8.4301,-8.4341,-8.4252,-8.4589,-8.4621,-8.4651,-8.4756,-8.4798,-8.4296,-8.4295,-8.4293,-8.4292,0,-8.3187,-8.3214,-8.3365,-8.34,-8.3449,-8.3433,-8.347,-8.3499,-8.3501,-8.3663,-8.3573,-8.367,-8.3835,-8.3874,-8.3915,-8.4228,-8.4154,-8.4259,-8.4436,-8.4553,-8.459,-8.4623,-8.4734,-8.4774,-8.4283,-8.4284,-8.4284,0,-8.2895,-8.2915,-8.2984,-8.309,-8.312,-8.323,-8.3073,-8.3196,-8.3277,-8.3153,-8.3315,-8.3326,-8.3375,-8.3574,-8.3661,-8.3591,-8.3985,-8.3855,-8.3877,-8.3885,-8.3997,-8.4042,-8.4081,-8.3558,-8.3555,-8.3553,0,0,-8.2765,-8.2869,-8.2875,-8.3054,-8.308,-8.3057,-8.3111,-8.3072,-8.3116,-8.3135,-8.3146,-8.3193,-8.3288,-8.3352,-8.3439,-8.3661,-8.3667,-8.3767,-8.3801,-8.3829,-8.3852,-8.3971,-8.4016,-8.3544,-8.3544,-8.3543,0,0,-8.2702,-8.2715,-8.2662,-8.2865,-8.2911,-8.2928,-8.3039,-8.2974,-8.3049,-8.3028,-8.2967,-8.2977,-8.3162,-8.3176,-8.3058,-8.3387,-8.3246,-8.3274,-8.337,-8.3413,-8.3446,-8.3437,-8.2898,0,0,0,0,0,-8.2525,-8.2714,-8.2665,-8.2694,-8.2826,-8.2956,-8.2972,-8.2925,-8.2826,-8.2916,-8.2915,-8.283,-8.31,-8.2994,-8.3024,-8.3155,-8.3426,-8.3447,-8.3467,-8.3643,-8.3688,-8.3726,0,0,0,0,0,0,-8.2536,-8.2571,-8.266,-8.2686,-8.2715,-8.2948,-8.2771,-8.2763,-8.2816,-8.2797,-8.2834,-8.2832,-8.2794,-8.2975,-8.3003,-8.3128,-8.2889,-8.3434,-8.3452,-8.3468,-8.3658,-8.3695,-8.3727,0,0,0,0,0,-8.2544,-8.2573,-8.2795,-8.2683,-8.2709,-8.2691,-8.2763,-8.2755,-8.2795,-8.2792,-8.2788,-8.2754,-8.2799,-8.282,-8.2991,-8.3116,-8.2869,-8.2879,-8.3446,-8.346,-8.3472,-8.3676,0,0,0,0,0,0,-8.255,-8.2567,-8.2799,-8.2805,-8.2607,-8.2677,-8.2686,-8.2749,-8.2786,-8.2783,-8.2709,-8.2695,-8.2805,-8.282,-8.2836,-8.3115,-8.2853,-8.2864,-8.287,-8.3457,-8.3467,-8.3477,0,0,0,0,0,0,-8.2551,-8.2573,-8.2802,-8.2709,-8.2703,-8.2665,-8.2673,-8.2811,-8.2788,-8.27,-8.2689,-8.2702,-8.2781,-8.2821,-8.2833,-8.3051,-8.284,-8.2851,-8.2858,-8.2862,-8.3466,-8.3474,0,0,0,0,0,0,-8.2559,-8.2578,-8.2706,-8.2703,-8.2698,-8.2761,-8.2786,-8.2923,-8.2707,-8.27,-8.2686,-8.2676,-8.2785,-8.2796,-8.2832,-8.3045,-8.305,-8.2841,-8.2848,-8.2853,-8.2856,0,0,0,0,0,0,0,-8.2566,-8.2453,-8.2764,-8.2698,-8.2693,-8.2861,-8.2862,-8.2864,-8.2705,-8.2696,-8.2688,-8.268,-8.2781,-8.2792,-8.2804,-8.3041,0,0,-8.2839,-8.2845,0,0,0,0,0,0,0,0,-8.2444,-8.245,-8.2764,-8.2765,-8.2767,-8.2861,-8.2862,-8.2863,-8.2703,-8.2697,-8.269,-8.2684,-8.2784,-8.2793,-8.2803,0,0,0,0,0,0,0,0,0,0,0,0,0,0,0,-8.2764,-8.2765,0,-8.2861,-8.2862,-8.2863,-8.2702,-8.2697,-8.2691,-8.2686,-8.2787,-8.2794,-8.2802,0,0,0,0,0,0,0,0,0,0,0,0,0,0,0,0,0,0,0,0,0,0,0,0,0,0,0,0,0,0,0,0,0,0,0,0,0,0,0,0,0,0,0,0,0,0,0,0,0,0,0,0,0,0,0,0,0,0,0,0,0,0,0,0,0,0,0,0,0]}],[{"header":{"parameterUnit":"kt","parameterCategory":2,"dx":1,"dy":1,"la1":30.253999710083008,"la2":30.299108505249023,"lo1":-89.0895004272461,"lo2":-89.04439544677734,"nx":28,"ny":28,"refTime":"2022-10-11T21:00:00:Z","depth":0,"parameterNumber":2,"parameterNumberName":"V-component_of_WINDS"},"data":[2.395,2.4016,2.4067,2.4166,2.4228,2.4304,2.4347,2.4409,2.4471,2.4567,2.4632,2.4688,2.4769,2.4858,2.4929,2.4953,2.498,2.4969,2.4998,2.5005,2.5009,2.5013,2.5002,2.4974,2.4974,2.4984,2.4984,2.4984,2.3959,2.4021,2.4087,2.4186,2.4244,2.4287,2.4368,2.4413,2.4479,2.4555,2.462,2.4708,2.4783,2.4869,2.495,2.4982,2.5006,2.5,2.4999,2.5011,2.5021,2.5008,2.498,2.498,2.498,2.498,2.498,2.498,2.3988,2.4024,2.4113,2.4185,2.4248,2.4314,2.4357,2.4426,2.449,2.458,2.4626,2.4701,2.4785,2.4905,2.4956,2.5017,2.5031,2.504,2.5042,2.5043,2.5039,2.5023,2.5032,2.5032,2.5033,2.5033,2.5033,0,2.4025,2.4065,2.413,2.4212,2.4267,2.4333,2.4403,2.4431,2.4529,2.4578,2.4653,2.4704,2.4804,2.4879,2.4964,2.5016,2.5063,2.5072,2.5079,2.5058,2.5031,2.5049,2.5064,2.5071,2.5071,2.5072,2.5072,2.5072,2.4059,2.4094,2.4209,2.4249,2.4299,2.436,2.4407,2.4491,2.4536,2.4633,2.4661,2.4737,2.4802,2.4911,2.4987,2.5062,2.5084,2.5083,2.5095,2.5076,2.5087,2.5084,2.5089,2.5078,2.5077,2.5076,2.5076,0,2.4074,2.4154,2.4224,2.4334,2.4363,2.4395,2.4489,2.4527,2.4588,2.465,2.4669,2.4763,2.4833,2.4911,2.5004,2.5043,2.51,2.512,2.5074,2.5082,2.5089,2.5088,2.5096,2.5102,2.5131,2.5131,2.513,0,2.4135,2.4176,2.4294,2.433,2.438,2.4463,2.451,2.4566,2.4638,2.4687,2.4753,2.4797,2.4888,2.4944,2.5,2.506,2.5077,2.511,2.5124,2.5104,2.51,2.5128,2.5129,2.5152,2.5152,2.5152,2.5152,0,2.415,2.4259,2.4319,2.4356,2.4475,2.4501,2.4551,2.4631,2.4674,2.4743,2.4773,2.4846,2.4886,2.4942,2.5013,2.5019,2.5087,2.511,2.512,2.5119,2.513,2.5128,2.5117,2.5152,2.5152,2.5152,2.5152,0,2.421,2.4278,2.435,2.4452,2.4477,2.4514,2.4593,2.4643,2.4722,2.476,2.4814,2.4866,2.4922,2.494,2.502,2.5009,2.5045,2.5081,2.5083,2.5092,2.511,2.5095,2.5076,2.5077,2.5103,2.5103,2.5102,0,2.4207,2.4299,2.437,2.4436,2.4489,2.4561,2.4604,2.4671,2.4725,2.4779,2.4838,2.4896,2.4926,2.4954,2.4984,2.5046,2.5061,2.5047,2.5122,2.5124,2.5101,2.5085,2.5063,2.5072,2.5098,2.5098,2.5099,0,2.4213,2.4356,2.4362,2.4409,2.451,2.4553,2.4602,2.4679,2.4711,2.4776,2.482,2.4902,2.4929,2.4974,2.5022,2.5048,2.5054,2.5072,2.5075,2.5068,2.5101,2.5081,2.5082,2.5081,2.5081,2.5082,2.5095,0,2.429,2.4345,2.4365,2.4462,2.4507,2.455,2.4632,2.4669,2.4713,2.4767,2.4831,2.4902,2.4976,2.4996,2.5036,2.5071,2.5077,2.5103,2.5124,2.5113,2.5119,2.5122,2.5109,2.511,2.5111,2.5112,0,0,2.4268,2.4347,2.442,2.447,2.4513,2.4584,2.4624,2.4673,2.4769,2.4798,2.4811,2.4936,2.4991,2.5059,2.5062,2.509,2.5105,2.5104,2.5117,2.5118,2.5118,2.5124,2.5125,2.5113,2.5114,2.5114,2.5114,0,2.4312,2.437,2.4407,2.4463,2.4546,2.4602,2.4611,2.4706,2.4742,2.4803,2.4859,2.4905,2.4999,2.5053,2.5092,2.5099,2.5137,2.5115,2.5093,2.5124,2.5123,2.5122,2.5127,2.5128,2.5117,2.5116,2.5116,0,2.4334,2.4405,2.443,2.4529,2.4584,2.4634,2.4679,2.4729,2.4768,2.4838,2.4897,2.4946,2.5022,2.5074,2.51,2.5112,2.5162,2.5158,2.5154,2.5158,2.5191,2.519,2.5189,2.5204,2.5204,2.5204,0,0,2.4361,2.4411,2.451,2.4545,2.4575,2.4658,2.4691,2.4737,2.4805,2.4831,2.4894,2.4957,2.5014,2.5049,2.5105,2.515,2.5173,2.5165,2.5161,2.5158,2.5159,2.5192,2.519,2.5204,2.5204,2.5204,0,0,2.4373,2.449,2.4521,2.4571,2.4635,2.4733,2.4751,2.4791,2.4849,2.4853,2.493,2.4949,2.4999,2.5044,2.5035,2.5114,2.5134,2.5138,2.5083,2.5079,2.5075,2.5063,2.5087,0,0,0,0,0,2.4459,2.4476,2.4504,2.4524,2.4646,2.4718,2.4734,2.4799,2.4814,2.4827,2.4887,2.4924,2.5056,2.505,2.5068,2.5076,2.5204,2.5204,2.5204,2.5144,2.5139,2.5135,0,0,0,0,0,0,2.4467,2.4492,2.4503,2.4601,2.4629,2.4718,2.4757,2.4776,2.4814,2.4821,2.4912,2.4927,2.4982,2.5045,2.506,2.5067,2.5082,2.5204,2.5204,2.5204,2.5142,2.5138,2.5135,0,0,0,0,0,2.4474,2.4494,2.4673,2.4601,2.4626,2.4717,2.4757,2.4773,2.4803,2.4894,2.4911,2.4849,2.4981,2.4998,2.5054,2.5058,2.5072,2.5077,2.5204,2.5204,2.5204,2.514,0,0,0,0,0,0,2.448,2.4508,2.468,2.4689,2.4599,2.4713,2.4733,2.477,2.4876,2.4892,2.4835,2.4839,2.498,2.4993,2.5006,2.5052,2.5064,2.5069,2.5073,2.5204,2.5204,2.5204,0,0,0,0,0,0,2.4498,2.4516,2.4685,2.4678,2.4688,2.4709,2.4727,2.4783,2.4876,2.4811,2.4817,2.4835,2.496,2.499,2.5,2.5085,2.5057,2.5063,2.5066,2.5069,2.5204,2.5204,0,0,0,0,0,0,2.4507,2.4523,2.4676,2.4683,2.4692,2.4807,2.476,2.4881,2.4872,2.4805,2.4873,2.4873,2.4955,2.4967,2.4996,2.5076,2.5083,2.5058,2.5061,2.5064,2.5065,0,0,0,0,0,0,0,2.4514,2.4395,2.4621,2.4688,2.4695,2.4781,2.4783,2.4786,2.4872,2.4872,2.4873,2.4873,2.5027,2.5033,2.5039,2.5069,0,0,2.5057,2.506,0,0,0,0,0,0,0,0,2.439,2.4394,2.4621,2.4624,2.4626,2.4781,2.4783,2.4785,2.4872,2.4872,2.4873,2.4873,2.5029,2.5034,2.5038,0,0,0,0,0,0,0,0,0,0,0,0,0,0,0,2.4622,2.4623,0,2.4781,2.4783,2.4785,2.4872,2.4872,2.4873,2.4873,2.503,2.5034,2.5038,0,0,0,0,0,0,0,0,0,0,0,0,0,0,0,0,0,0,0,0,0,0,0,0,0,0,0,0,0,0,0,0,0,0,0,0,0,0,0,0,0,0,0,0,0,0,0,0,0,0,0,0,0,0,0,0,0,0,0,0,0,0,0,0,0,0,0,0,0]}]]]